User: anonymous   Login
Location: Brede
(50.9167°N, 0.6000°E)
Time: 16:17:26
(UTC+00:00)
Language:

Explorer 7 - Orbit

View from above orbital plane
View from above orbital plane
View from above satellite
View from above satellite

Ground track
Ground track

The orbit data is extracted from the following two-line orbital elements,

1    22U 59009A   20330.76998233  .00000924  00000-0  91318-4 0  9993
2    22  50.2848  65.0860 0139374 155.1580 205.6162 14.95305466249460
Epoch (UTC): 25 November 2020 18:28:46
Eccentricity: 0.0139374
inclination: 50.2848°
perigee height: 484 km
apogee height: 678 km
right ascension of ascending node: 65.0860°
argument of perigee: 155.1580°
revolutions per day: 14.95305466
mean anomaly at epoch: 205.6162°
orbit number at epoch: 24946

The dashed part of the orbit path shows where the satellite is in the earth's shadow,  

DLR